This is the latest recevied weather packets stored in our database for station/object KE8DDT-7. If no packets are shown the sender has not sent any weather packets the latest 1 day(s).
| Time | Temp. | Humidity | Pressure | Rain* | Wind** | Luminosity | Snow |
|---|---|---|---|---|---|---|---|
| 1778107659 | 11.11° C | 46% | 1004.2 hPa | 0 mm | - | 67 W/m² | - |
| 1778107359 | 11.11° C | 46% | 1004.1 hPa | 0 mm | - | 77 W/m² | - |
| 1778107059 | 11.11° C | 45% | 1004.2 hPa | 0 mm | - | 84 W/m² | - |
| 1778106759 | 11.11° C | 45% | 1004.2 hPa | 0 mm | - | 120 W/m² | - |
| 1778106459 | 11.11° C | 46% | 1004.2 hPa | 0 mm | - | 128 W/m² | - |
| 1778106159 | 11.11° C | 49% | 1004.2 hPa | 0 mm | - | 102 W/m² | - |
| 1778105859 | 11.11° C | 47% | 1004.3 hPa | 0 mm | - | 113 W/m² | - |
| 1778105559 | 11.11° C | 47% | 1004.2 hPa | 0 mm | - | 86 W/m² | - |
| 1778104959 | 11.11° C | 47% | 1004.3 hPa | 0 mm | - | 125 W/m² | - |
| 1778104659 | 11.11° C | 46% | 1004.3 hPa | 0 mm | - | 102 W/m² | - |
| 1778104359 | 11.11° C | 47% | 1004.2 hPa | 0 mm | - | 144 W/m² | - |
| 1778104059 | 11.11° C | 45% | 1004.2 hPa | 0 mm | - | 156 W/m² | - |
| 1778103759 | 11.67° C | 47% | 1004.2 hPa | 0 mm | - | 229 W/m² | - |
| 1778103459 | 11.11° C | 46% | 1004.2 hPa | 0 mm | - | 176 W/m² | - |
| 1778103159 | 11.67° C | 46% | 1004.1 hPa | 0 mm | - | 193 W/m² | - |
| 1778102859 | 11.67° C | 46% | 1004.2 hPa | 0 mm | - | 186 W/m² | - |
| 1778102259 | 11.67° C | 45% | 1004.2 hPa | 0 mm | - | 221 W/m² | - |
| 1778101959 | 11.11° C | 47% | 1004.1 hPa | 0 mm | - | 244 W/m² | - |
| 1778101659 | 11.11° C | 46% | 1004.3 hPa | 0 mm | - | 190 W/m² | - |
| 1778101359 | 11.11° C | 48% | 1004.3 hPa | 0 mm | - | 211 W/m² | - |
| 1778101059 | 11.11° C | 47% | 1004.1 hPa | 0 mm | - | 225 W/m² | - |
| 1778100759 | 11.11° C | 45% | 1004.2 hPa | 0 mm | - | 171 W/m² | - |
| 1778100459 | 11.11° C | 46% | 1004.2 hPa | 0 mm | - | 179 W/m² | - |
| 1778099860 | 11.11° C | 45% | 1004.2 hPa | 0 mm | - | 239 W/m² | - |
| 1778099559 | 11.11° C | 46% | 1004.2 hPa | 0 mm | - | 251 W/m² | - |
* Rain latest hour (hover to see other rain measurements)
** Current wind speed in m/s (hover to see current wind gust speed)